User: anonymous   Login
Location: Jetmore Oil Field
(38.1181°N, 99.9337°W)
Time: 04:15:22
(UTC+00:00)
Language:

STARLINK-2709 - Orbit

View from above orbital plane
View from above orbital plane
View from above satellite
View from above satellite

Ground track
Ground track

The orbit data is extracted from the following two-line orbital elements,

1 48664C 21044AC  21268.72325828  .00005955  00000-0  39912-3 0  2685
2 48664  53.0548 210.8507 0001670  66.4710 168.3050 15.06382407    16
Epoch (UTC): 25 September 2021 17:21:29
Eccentricity: 0.0001670
inclination: 53.0548°
perigee height: 546 km
apogee height: 548 km
right ascension of ascending node: 210.8507°
argument of perigee: 66.4710°
revolutions per day: 15.06382407
mean anomaly at epoch: 168.3050°
orbit number at epoch: 1

The dashed part of the orbit path shows where the satellite is in the earth's shadow,  

DLR